Regional Weather Roundup
Issued by NWS

Home | Current Version | Previous Version | Text Only | Print | Product List | Glossary Off
Versions: 1 2 3 4 5 6 7 8 9 10 11 12 13 14 15 16 17 18 19 20 21 22 23 24 25 26 27 28 29 30 31 32 33 34 35 36 37 38 39 40 41 42 43 44 45 46 47 48 49 50

000
ASUS45 KTFX 312110
RWRMT
MONTANA REGIONAL WEATHER ROUNDUP
NATIONAL WEATHER SERVICE GREAT FALLS MT
300 PM MDT FRI JUL 31 2015

NOTE: "FAIR" INDICATES FEW OR NO CLOUDS BELOW 12000 FEET WITH NO
SIGNIFICANT WEATHER AND/OR OBSTRUCTIONS TO VISIBILITY.

MTZ001>007-043-312200-
WEST OF THE DIVIDE

CITY           SKY/WX    TMP DP  RH WIND       PRES   REMARKS
KALISPELL      CLEAR     92  34  13 SE13      30.09F
MISSOULA       SUNNY     89  35  14 SE3       30.14F
BUTTE          SUNNY     85  30  13 NW5       30.30F
MULLAN PASS    SUNNY     79  24  13 VRB3      30.35S
DEER LODGE       N/A     84  32  15 E6        30.28F
EUREKA           N/A     95  30  10 SW8       30.05F
HAMILTON         N/A     86  46  25 VRB7      30.16F
LIBBY            N/A     95  30  10 W8        30.06F
RONAN            N/A     92  34  13 SW2       30.17F
$$

MTZ008-052>055-312200-
SOUTHWEST MONTANA

CITY           SKY/WX    TMP DP  RH WIND       PRES   REMARKS
BOZEMAN        SUNNY     86  38  18 N7        30.23F
DILLON         SUNNY     86  32  14 CALM      30.26F
W YELLOWSTONE  PTSUNNY   81  32  17 SW8       30.38S
THREE FORKS      N/A     89  38  16 E5        30.18F
TWIN BRIDGES     N/A     87  37  17 S10       30.21F
$$

MTZ009-010-012-014-046-048-049-054-312200-
EAST SLOPES AND CENTRAL MONTANA

CITY           SKY/WX    TMP DP  RH WIND       PRES   REMARKS
CUT BANK       SUNNY     92  26   9 NW9G17    30.12F
GREAT FALLS    SUNNY     90  29  11 SW8       30.15F
MALMSTROM AFB  SUNNY     89  34  14 W9G16     30.14F
HELENA         SUNNY     92  35  13 NE10      30.16F
$$

MTZ011-013-016-021-045-047-050-051-312200-
NORTH CENTRAL MONTANA

CITY           SKY/WX    TMP DP  RH WIND       PRES   REMARKS
HAVRE          SUNNY     92  41  17 W13       30.06F
LEWISTOWN      SUNNY     88  39  17 N12G18    30.18F
CHINOOK          N/A     90  45  20 S3        30.05F
FORT BENTON      N/A     91  34  13 W10       30.09F
$$

MTZ017>020-022>027-061-062-312200-
NORTHEAST MONTANA

CITY           SKY/WX    TMP DP  RH WIND       PRES   REMARKS
GLASGOW        SUNNY     90  40  17 CALM      30.04F
JORDAN           N/A     95  38  13 SW12G22   30.05F HX  90
SIDNEY         SUNNY    N/A N/A N/A E3        30.07F
WOLF POINT     SUNNY     94  44  17 E5        30.05F HX  90
MALTA            N/A     91  49  23 CALM      30.01F
PLENTYWOOD       N/A     84  46  26 CALM      30.10F
POPLAR           N/A     90  45  20 S6        30.07F
SCOBEY           N/A     87  46  23 E1        30.09F
$$

MTZ028>42-056>058-312200-
SOUTHCENTRAL AND SOUTHEAST MONTANA

CITY           SKY/WX    TMP DP  RH WIND       PRES   REMARKS
BAKER          MOSUNNY   92  38  15 S10G18    30.14F
BILLINGS       MOSUNNY   94  37  13 SW9       30.13F
LIVINGSTON     SUNNY     92  25   9 W17       30.21F
MILES CITY     SUNNY     94  41  16 SW7G16    30.06F HX  90
EKALAKA          N/A     90  38  16 CALM      30.12F
FORSYTH          N/A     95  37  13 SW6       30.06F HX  90
LAUREL           N/A     95  36  12 S9        30.10F HX  90
ROUNDUP          N/A     93  33  12 NW10      30.02F
$$

REGIONAL REPORTS...DAKOTAS

CITY           SKY/WX    TMP DP  RH WIND       PRES   REMARKS
WILLISTON      SUNNY     89  44  20 N10G17    30.09F
MINOT          SUNNY     81  49  32 N10       30.07F
DICKINSON      SUNNY     87  40  19 W5        30.11F
BEACH          FAIR      86  39  19 E3        30.13F
CROSBY         FAIR      81  43  26 N7        30.11F
BISMARCK       SUNNY     88  51  28 NW15      30.08F
GRAND FORKS    MOSUNNY   82  51  34 NW13G21   30.00F
FARGO          MOSUNNY   83  54  36 NW14      30.03F
BUFFALO SD       N/A     91  39  16 SW12      30.09F
RAPID CITY     SUNNY     87  53  31 E10       30.17F
$$

REGIONAL REPORTS...WYOMING/IDAHO/WASHINGTON

CITY           SKY/WX    TMP DP  RH WIND       PRES   REMARKS
GILLETTE       MOSUNNY   89  39  17 VRB5      30.18F
SHERIDAN       SUNNY     92  35  13 NW6       30.15F
BUFFALO WY     SUNNY     90  37  15 VRB7      30.23F
CODY           MOSUNNY   88  37  16 E7        30.22F
YELLOWSTONE LA   N/A     71  34  25 VRB5      30.48F
IDAHO FALLS    SUNNY     89  30  12 SW5       30.25F
SALMON         SUNNY     88  41  19 N6        30.17F
BOISE          SUNNY     96  39  13 NW8       30.12F HX  91
SPOKANE        MOSUNNY   98  29   8 SW18      30.06F HX  92
$$

REGIONAL REPORTS...ALBERTA

CITY           SKY/WX    TMP DP  RH WIND       PRES   REMARKS
EDMONTON       SUNNY     82  50  32 SW10      29.99F
CALGARY        MOSUNNY   86  41  20 SE13G20   30.06F
LETHBRIDGE     MOSUNNY   90  41  18 E9G20     30.05F
MEDICINE HAT   MOSUNNY   90  43  19 W8        30.04F
CARDSTON         N/A     90  34  13 SW6         N/A
MILK RIVER       N/A     91  34  13 NW8         N/A
ONEFOUR          N/A     86  37  17 W9          N/A
$$

REGIONAL REPORTS...SASKATCHEWAN

CITY           SKY/WX    TMP DP  RH WIND       PRES   REMARKS
SWIFT CURRENT  SUNNY     81  48  32 E12       30.10F
REGINA         MOSUNNY   81  48  32 W5        30.10F
SASKATOON      MOSUNNY   77  46  33 VRB2      30.08F
VAL MARIE        N/A     88  46  23 SW9         N/A
ROCKGLEN         N/A     82  48  30 NE3         N/A
$$


USA.gov is the U.S. government's official web portal to all federal, state and local government web resources and services.